Flag for U.S.A. Weather past 2 weeks in Hartford, Connecticut, U.S.A.

Now
69 °F

Sunny.


Feels Like: 69 °F
Forecast: 59 / 77 °F
Wind: 6 mph from Southeast

Location: Hartford-Brainard Airport

Current Time: Aug 29, 2014 at 8:29:42 PM

Latest Report: Aug 29, 2014 at 7:53 PM


Visibility: 10 mi

Pressure: 30.20 "Hg

Humidity: 59%

Dew point: 54 °F

Location of HartfordLocation

Historic Weather in Hartford — Graph

°F

Hartford temperature yesterday

Maximum temperature yesterday: 80 °F (at 1:53 PM)
Minimum temperature yesterday: 65 °F (at 5:53 AM)
Average temperature yesterday: 72 °F

Past Weeks' High & Low Weather Summary

 TemperatureHumidityPressure
High88 °F (Aug 27, 1:53 PM)97% (Aug 25, 6:53 AM)30.19 "Hg (Aug 25, 6:53 AM)
Low52 °F (Aug 19, 5:53 AM)33% (Aug 14, 6:53 PM)29.79 "Hg (Aug 17, 2:53 PM)
Average69 °F68%30.00 "Hg
* Reported Aug 14 6:53 PM — Aug 29 6:53 PM, Hartford, Weather by CustomWeather, © 2014

Note: Actual official high and low records may vary slightly from our data, if they occured in-between our weather recording intervals... More about our weather records

Advertising

Hartford weather history for previous 24 hours

 ConditionsComfort  
Time TempWeatherWind HumidityBarometerVisibility
6:53 PM
Aug 29
72 °FSunny.7 mph55%30.18 "Hg10 mi
5:53 PM76 °FSunny.6 mph43%30.17 "Hg10 mi
4:53 PM76 °FSunny.3 mph43%30.16 "Hg10 mi
2:53 PM75 °FPartly sunny.3 mph43%30.16 "Hg10 mi
1:53 PM75 °FPartly sunny.5 mph43%30.17 "Hg10 mi
12:53 PM74 °FScattered clouds.6 mph43%30.17 "Hg10 mi
11:53 AM71 °FSunny.3 mph51%30.18 "Hg10 mi
10:53 AM70 °FSunny.5 mph55%30.19 "Hg10 mi
9:53 AM67 °FSunny.10 mph59%30.19 "Hg10 mi
8:53 AM64 °FSunny.3 mph65%30.16 "Hg10 mi
7:53 AM61 °FSunny.3 mph72%30.15 "Hg10 mi
6:53 AM56 °FClear.No wind87%30.13 "Hg10 mi
5:53 AM58 °FClear.5 mph75%30.11 "Hg10 mi
4:53 AM59 °FClear.6 mph75%30.08 "Hg10 mi
3:53 AM58 °FClear.6 mph78%30.07 "Hg10 mi
2:53 AM60 °FClear.No wind69%30.06 "Hg10 mi
1:53 AM63 °FClear.5 mph68%30.05 "Hg10 mi
12:53 AM64 °FClear.6 mph65%30.05 "Hg10 mi
11:53 PM
Aug 28
66 °FClear.7 mph61%30.03 "Hg10 mi
10:53 PM67 °FPassing clouds.8 mph59%30.01 "Hg10 mi
9:53 PM70 °FOvercast.8 mph51%30.00 "Hg10 mi
8:53 PM71 °FPassing clouds.8 mph51%29.97 "Hg10 mi
Weather by CustomWeather, © 2014

See weather overviewHow to use our weather pages